[[{"header":{"parameterUnit":"m.s-1","parameterCategory":2,"la1":30.2991,"la2":30.254,"lo1":-89.0895,"lo2":-89.0444,"dy":0.0017,"dx":0.0017,"nx":28,"ny":28,"refTime":"2023-08-13T03:00:00:Z","depth":"0","parameterNumber":2,"parameterNumberName":"U-component_of_CURRENTS"},"data":[0,0,0,0,0,0,0,0,0,0,0,0,0,0,0,0,0,0,0,0,0,0,0,0,0,0,0,0,0,0,0,0,0,0,0,0,0,0,0,0,0,0,0,0,0,0,0,0,0,0,0,0,0,0,0,0,0,0,-0.1715,-0.1715,0,-0.1743,-0.1743,-0.1743,-0.1816,-0.1817,-0.1819,-0.182,-0.1809,-0.1808,-0.1806,0,0,0,0,0,0,0,0,0,0,0,0,0,-0.1748,-0.1747,-0.1715,-0.1715,-0.1715,-0.1742,-0.1743,-0.1744,-0.1816,-0.1817,-0.1819,-0.1821,-0.181,-0.1808,-0.1806,0,0,0,0,0,0,0,0,0,0,0,0,0,-0.1752,-0.1747,-0.1715,-0.1753,-0.1757,-0.1742,-0.1743,-0.1744,-0.1815,-0.1817,-0.1819,-0.1821,-0.1811,-0.1808,-0.1806,-0.175,0,0,-0.1799,-0.1798,0,0,0,0,0,0,0,0,-0.1752,-0.1751,-0.1747,-0.175,-0.1754,-0.1776,-0.1751,-0.1743,-0.1815,-0.1795,-0.182,-0.1822,-0.1792,-0.1791,-0.1795,-0.175,-0.1749,-0.1799,-0.1797,-0.1796,-0.1796,0,0,0,0,0,0,0,-0.1751,-0.175,-0.1728,-0.1747,-0.1751,-0.1777,-0.178,-0.175,-0.1782,-0.1797,-0.1802,-0.1801,-0.1794,-0.1797,-0.1795,-0.1749,-0.1799,-0.1797,-0.1795,-0.1794,-0.1723,-0.1723,0,0,0,0,0,0,-0.174,-0.175,-0.1727,-0.1728,-0.1756,-0.1774,-0.1778,-0.1769,-0.1784,-0.1788,-0.1799,-0.1804,-0.18,-0.1798,-0.1795,-0.1773,-0.1796,-0.1794,-0.1793,-0.1723,-0.1723,-0.1722,0,0,0,0,0,0,-0.1741,-0.1738,-0.1725,-0.1739,-0.1739,-0.1771,-0.1761,-0.1768,-0.1776,-0.1786,-0.179,-0.18,-0.1802,-0.1798,-0.1791,-0.1771,-0.1793,-0.1791,-0.1724,-0.1723,-0.1723,-0.17,0,0,0,0,0,0,-0.1741,-0.1737,-0.1723,-0.1738,-0.1738,-0.1718,-0.1759,-0.1767,-0.1771,-0.1778,-0.1787,-0.1788,-0.1803,-0.1794,-0.1788,-0.1769,-0.1789,-0.1725,-0.1724,-0.1723,-0.1701,-0.1699,-0.1696,0,0,0,0,0,-0.1742,-0.1717,-0.1722,-0.1719,-0.1718,-0.1717,-0.1719,-0.1751,-0.1769,-0.1767,-0.1787,-0.1788,-0.1784,-0.1792,-0.1785,-0.1764,-0.1725,-0.1724,-0.1723,-0.1702,-0.1699,-0.1696,0,0,0,0,0,0,-0.1715,-0.1722,-0.1728,-0.1703,-0.1708,-0.1729,-0.1724,-0.174,-0.1752,-0.1759,-0.1777,-0.1779,-0.1768,-0.1764,-0.1772,-0.1743,-0.1755,-0.1752,-0.1742,-0.1738,-0.1736,-0.1711,-0.1787,0,0,0,0,0,-0.17,-0.1687,-0.1698,-0.1673,-0.1676,-0.1695,-0.1696,-0.1714,-0.1728,-0.1736,-0.1747,-0.1754,-0.1753,-0.1747,-0.1746,-0.1715,-0.1696,-0.17,-0.1697,-0.1695,-0.1671,-0.1637,-0.1628,-0.1719,-0.1719,-0.1719,0,0,-0.1678,-0.168,-0.1671,-0.1667,-0.1674,-0.167,-0.1702,-0.1698,-0.1694,-0.1727,-0.1725,-0.174,-0.1745,-0.1733,-0.1725,-0.1729,-0.1661,-0.1693,-0.1692,-0.1668,-0.1635,-0.1626,-0.1618,-0.1718,-0.1718,-0.1718,0,0,-0.1635,-0.1633,-0.1615,-0.1621,-0.1626,-0.164,-0.1635,-0.1654,-0.1665,-0.1657,-0.1691,-0.1695,-0.1685,-0.1696,-0.1696,-0.1666,-0.1651,-0.1668,-0.1627,-0.1594,-0.1586,-0.1579,-0.1548,-0.1538,-0.1663,-0.1663,-0.1663,0,-0.1605,-0.1589,-0.1606,-0.1597,-0.1598,-0.1624,-0.161,-0.1616,-0.1631,-0.1631,-0.1653,-0.1655,-0.1664,-0.1648,-0.1652,-0.1657,-0.1638,-0.1641,-0.1589,-0.1582,-0.1574,-0.1545,-0.1534,-0.1661,-0.1662,-0.1662,-0.1662,0,-0.156,-0.1549,-0.1538,-0.1539,-0.154,-0.153,-0.1547,-0.1549,-0.1564,-0.1575,-0.1568,-0.1588,-0.159,-0.1597,-0.1614,-0.1572,-0.1575,-0.1594,-0.1595,-0.1564,-0.1535,-0.1524,-0.166,-0.166,-0.1661,-0.1661,0,0,-0.1471,-0.1502,-0.1495,-0.1495,-0.1512,-0.1505,-0.1499,-0.1498,-0.1487,-0.1503,-0.1485,-0.1498,-0.1515,-0.1515,-0.1539,-0.1512,-0.1456,-0.1525,-0.1524,-0.149,-0.1378,-0.1321,-0.1304,-0.1466,-0.1464,-0.1462,-0.138,0,-0.1425,-0.1412,-0.1437,-0.1413,-0.1408,-0.1439,-0.1429,-0.1433,-0.1443,-0.1434,-0.1449,-0.144,-0.1482,-0.148,-0.1462,-0.1459,-0.1424,-0.1476,-0.1416,-0.1414,-0.1363,-0.1288,-0.1209,-0.1124,-0.137,-0.1368,-0.1367,0,-0.136,-0.1367,-0.135,-0.1362,-0.1361,-0.135,-0.1345,-0.1339,-0.1342,-0.135,-0.1353,-0.1369,-0.1347,-0.138,-0.1339,-0.137,-0.136,-0.1355,-0.1353,-0.1292,-0.1335,-0.1194,-0.1094,-0.0938,-0.135,-0.1351,-0.1352,0,-0.1286,-0.1295,-0.1285,-0.1289,-0.1309,-0.1298,-0.1302,-0.1307,-0.1296,-0.1289,-0.1277,-0.1275,-0.1257,-0.1245,-0.1248,-0.1285,-0.1188,-0.1244,-0.118,-0.1177,-0.1091,-0.1083,-0.0823,-0.1185,-0.1185,-0.1185,-0.1185,0,-0.1216,-0.1198,-0.1251,-0.1237,-0.1215,-0.1243,-0.1209,-0.1219,-0.1216,-0.1192,-0.1222,-0.1197,-0.1217,-0.1183,-0.1198,-0.1137,-0.1147,-0.1134,-0.1134,-0.1082,-0.1075,-0.0922,-0.0841,-0.1182,-0.1183,-0.1183,-0.1184,0,-0.1116,-0.1156,-0.1142,-0.117,-0.1176,-0.1152,-0.1159,-0.1135,-0.1143,-0.1109,-0.1099,-0.111,-0.1066,-0.1072,-0.1041,-0.1052,-0.0964,-0.0994,-0.093,-0.0922,-0.0727,-0.0649,-0.0606,-0.0651,-0.0903,-0.09,-0.0899,0,-0.1062,-0.1049,-0.1084,-0.1078,-0.1085,-0.1073,-0.1061,-0.1088,-0.1072,-0.1057,-0.1029,-0.0984,-0.0954,-0.0883,-0.0871,-0.0839,-0.085,-0.0753,-0.0804,-0.0652,-0.0565,-0.0735,-0.0791,-0.0691,-0.0688,-0.0685,-0.0683,0,-0.0954,-0.0975,-0.0974,-0.0972,-0.0965,-0.0963,-0.0955,-0.0939,-0.0959,-0.0936,-0.0901,-0.0872,-0.0809,-0.0733,-0.0681,-0.0672,-0.0683,-0.0694,-0.0542,-0.035,-0.051,-0.0575,-0.082,-0.0658,-0.0661,-0.0662,-0.0664,-0.0665,-0.0868,-0.0852,-0.0864,-0.0846,-0.0855,-0.0845,-0.0801,-0.0811,-0.0781,-0.0726,-0.0776,-0.0689,-0.0613,-0.0531,-0.0483,-0.0307,-0.0505,-0.0272,-0.0185,-0.0375,-0.0408,-0.0589,-0.0429,-0.043,-0.0431,-0.0432,-0.0433,0,-0.0758,-0.0754,-0.0737,-0.0727,-0.0706,-0.0744,-0.0718,-0.0662,-0.0606,-0.0583,-0.0554,-0.0424,-0.0285,-0.0183,0.0004,0.0169,-0.0005,0.0263,0.0102,0.0016,-0.0093,-0.0065,0.019,0.019,0.019,0.019,0.019,0.0189,-0.0698,-0.0652,-0.0648,-0.0582,-0.0581,-0.052,-0.049,-0.0431,-0.0385,-0.0259,-0.0173,-0.0152,0.0053,0.0399,0.068,0.069,0.0598,0.0611,0.0524,0.061,0.0566,0.0523,0.057,0.0954,0.0955,0.0477,0.0476,0.0475]},{"header":{"parameterUnit":"m.s-1","parameterCategory":2,"la1":30.2991,"la2":30.254,"lo1":-89.0895,"lo2":-89.0444,"dy":0.0017,"dx":0.0017,"nx":28,"ny":28,"refTime":"2023-08-13T03:00:00:Z","depth":"0","parameterNumber":3,"parameterNumberName":"V-component_of_CURRENTS"},"data":[0,0,0,0,0,0,0,0,0,0,0,0,0,0,0,0,0,0,0,0,0,0,0,0,0,0,0,0,0,0,0,0,0,0,0,0,0,0,0,0,0,0,0,0,0,0,0,0,0,0,0,0,0,0,0,0,0,0,-0.17,-0.1701,0,-0.1699,-0.1698,-0.1698,-0.1643,-0.1642,-0.1641,-0.1641,-0.1709,-0.1711,-0.1714,0,0,0,0,0,0,0,0,0,0,0,0,0,-0.1582,-0.1584,-0.17,-0.1701,-0.1701,-0.1699,-0.1698,-0.1697,-0.1643,-0.1642,-0.1641,-0.1641,-0.1708,-0.1711,-0.1714,0,0,0,0,0,0,0,0,0,0,0,0,0,-0.1604,-0.1585,-0.17,-0.168,-0.1679,-0.1699,-0.1698,-0.1697,-0.1643,-0.1642,-0.1641,-0.164,-0.1707,-0.1711,-0.1714,-0.1756,0,0,-0.1725,-0.1727,0,0,0,0,0,0,0,0,-0.1603,-0.1608,-0.1682,-0.1682,-0.1681,-0.1678,-0.1682,-0.1723,-0.1643,-0.1647,-0.1641,-0.164,-0.1711,-0.1714,-0.1703,-0.1759,-0.1762,-0.1726,-0.1728,-0.1729,-0.173,0,0,0,0,0,0,0,-0.1602,-0.1607,-0.1691,-0.1684,-0.1683,-0.1648,-0.1649,-0.1688,-0.1679,-0.1647,-0.1645,-0.1659,-0.171,-0.1699,-0.1705,-0.1763,-0.1725,-0.1729,-0.1731,-0.1732,-0.1861,-0.1862,0,0,0,0,0,0,-0.1625,-0.1607,-0.1691,-0.1692,-0.1649,-0.1651,-0.1653,-0.1672,-0.1677,-0.1679,-0.166,-0.1657,-0.1694,-0.17,-0.1707,-0.1744,-0.1729,-0.1733,-0.1735,-0.186,-0.1861,-0.1863,0,0,0,0,0,0,-0.1622,-0.1633,-0.1691,-0.1655,-0.1661,-0.1656,-0.1677,-0.1673,-0.1672,-0.1688,-0.1689,-0.1665,-0.1693,-0.1702,-0.1738,-0.1747,-0.1734,-0.1738,-0.1858,-0.186,-0.1862,-0.1826,0,0,0,0,0,0,-0.1619,-0.1632,-0.164,-0.1657,-0.1665,-0.1709,-0.1679,-0.1674,-0.1686,-0.1681,-0.1694,-0.1697,-0.1693,-0.1732,-0.1741,-0.1751,-0.174,-0.1857,-0.1859,-0.1861,-0.1826,-0.1827,-0.1828,0,0,0,0,0,-0.1615,-0.1629,-0.1641,-0.1651,-0.1681,-0.1711,-0.171,-0.1696,-0.1687,-0.1689,-0.1692,-0.1697,-0.1754,-0.1736,-0.1746,-0.1758,-0.1855,-0.1858,-0.1861,-0.1826,-0.1827,-0.1828,0,0,0,0,0,0,-0.1567,-0.1627,-0.1639,-0.1667,-0.1695,-0.1705,-0.1704,-0.171,-0.1711,-0.1704,-0.1713,-0.1718,-0.175,-0.1772,-0.1753,-0.1805,-0.1807,-0.1812,-0.1777,-0.1778,-0.1779,-0.1753,-0.1743,0,0,0,0,0,-0.1571,-0.1602,-0.165,-0.167,-0.1689,-0.1703,-0.1711,-0.1711,-0.1724,-0.1722,-0.1731,-0.1749,-0.177,-0.1788,-0.1807,-0.1846,-0.183,-0.1864,-0.1865,-0.1865,-0.1854,-0.1821,-0.1816,-0.1872,-0.1872,-0.1872,0,0,-0.1556,-0.1594,-0.1608,-0.1663,-0.1677,-0.1693,-0.1702,-0.1722,-0.1725,-0.1736,-0.1735,-0.1754,-0.1782,-0.1803,-0.1822,-0.1823,-0.1846,-0.1868,-0.1868,-0.1856,-0.1823,-0.1817,-0.1811,-0.1874,-0.1873,-0.1873,0,0,-0.1538,-0.1582,-0.1599,-0.1627,-0.1672,-0.1688,-0.1705,-0.173,-0.173,-0.1752,-0.1751,-0.1771,-0.1814,-0.1816,-0.1829,-0.1859,-0.1848,-0.1884,-0.1867,-0.1836,-0.1829,-0.1824,-0.1803,-0.1796,-0.1886,-0.1886,-0.1886,0,-0.1514,-0.1546,-0.1604,-0.1623,-0.1636,-0.1691,-0.1694,-0.1715,-0.1742,-0.1749,-0.175,-0.1786,-0.181,-0.1828,-0.1829,-0.1856,-0.1839,-0.1854,-0.1831,-0.1825,-0.182,-0.18,-0.1792,-0.1885,-0.1885,-0.1885,-0.1885,0,-0.1512,-0.153,-0.1542,-0.1588,-0.161,-0.1628,-0.1676,-0.1697,-0.1716,-0.1732,-0.1757,-0.1776,-0.1793,-0.1815,-0.1828,-0.1821,-0.1822,-0.1827,-0.1815,-0.1811,-0.1792,-0.1785,-0.1883,-0.1883,-0.1883,-0.1884,0,0,-0.1477,-0.1528,-0.1532,-0.1532,-0.1591,-0.1607,-0.1634,-0.1671,-0.1678,-0.1713,-0.1711,-0.1751,-0.1764,-0.178,-0.1806,-0.1788,-0.1741,-0.1791,-0.179,-0.1747,-0.1672,-0.1638,-0.1627,-0.1733,-0.1731,-0.173,-0.1675,0,-0.1452,-0.1468,-0.1502,-0.1499,-0.1507,-0.1558,-0.1574,-0.1615,-0.1648,-0.1666,-0.1708,-0.1718,-0.1755,-0.1754,-0.1746,-0.1748,-0.1719,-0.1756,-0.1703,-0.1702,-0.1652,-0.1616,-0.162,-0.1567,-0.1667,-0.1666,-0.1665,0,-0.1439,-0.1449,-0.1442,-0.1451,-0.1459,-0.1465,-0.1496,-0.1515,-0.1574,-0.1599,-0.163,-0.1662,-0.1677,-0.1688,-0.1673,-0.1694,-0.1672,-0.1666,-0.1664,-0.1635,-0.1653,-0.159,-0.1549,-0.1398,-0.1653,-0.1654,-0.1655,0,-0.1389,-0.1403,-0.1391,-0.1397,-0.1424,-0.1422,-0.1439,-0.149,-0.1505,-0.155,-0.1561,-0.1595,-0.16,-0.1589,-0.1604,-0.1624,-0.1566,-0.1592,-0.1539,-0.1538,-0.1531,-0.1531,-0.1315,-0.1536,-0.1536,-0.1536,-0.1537,0,-0.1352,-0.1338,-0.1365,-0.1355,-0.1338,-0.1369,-0.1362,-0.1396,-0.1433,-0.1447,-0.1513,-0.1527,-0.1566,-0.1562,-0.157,-0.1533,-0.1536,-0.1516,-0.1509,-0.1523,-0.1522,-0.1385,-0.1323,-0.1534,-0.1535,-0.1535,-0.1536,0,-0.129,-0.1315,-0.1295,-0.1308,-0.1312,-0.1297,-0.1317,-0.1323,-0.1361,-0.1376,-0.1384,-0.1456,-0.1464,-0.1493,-0.1475,-0.1474,-0.1351,-0.1426,-0.1447,-0.1442,-0.1258,-0.1197,-0.1004,-0.0855,-0.1358,-0.1356,-0.1355,0,-0.125,-0.1239,-0.1251,-0.1246,-0.1246,-0.124,-0.1248,-0.1288,-0.1298,-0.1338,-0.1341,-0.136,-0.1393,-0.1375,-0.1399,-0.1389,-0.1267,-0.1329,-0.136,-0.1216,-0.1143,-0.1108,-0.0993,-0.1349,-0.1348,-0.1347,-0.1346,0,-0.1158,-0.1176,-0.1166,-0.1169,-0.1171,-0.1178,-0.1186,-0.1185,-0.123,-0.1248,-0.1275,-0.1295,-0.1329,-0.1355,-0.1334,-0.1319,-0.1182,-0.1307,-0.1147,-0.1092,-0.105,-0.0916,-0.1424,-0.1338,-0.1339,-0.134,-0.134,-0.1341,-0.1077,-0.1063,-0.1071,-0.107,-0.1088,-0.1106,-0.1092,-0.1116,-0.1123,-0.1129,-0.1195,-0.1209,-0.1266,-0.1282,-0.1227,-0.11,-0.1101,-0.1053,-0.0986,-0.096,-0.0809,-0.1292,-0.1203,-0.1203,-0.1203,-0.1203,-0.1203,0,-0.0964,-0.0973,-0.0972,-0.0983,-0.0995,-0.1032,-0.1044,-0.1028,-0.102,-0.1049,-0.1073,-0.1103,-0.1093,-0.1062,-0.0978,-0.0813,-0.0742,-0.0703,-0.0647,-0.0536,-0.0964,-0.0954,-0.0819,-0.0819,-0.0819,-0.0819,-0.082,-0.082,-0.0899,-0.0872,-0.0894,-0.0884,-0.0905,-0.0898,-0.0896,-0.089,-0.0895,-0.0876,-0.0881,-0.09,-0.0758,-0.0714,-0.0512,-0.0466,-0.0205,-0.0285,-0.0088,-0.0406,-0.0434,-0.046,-0.0432,-0.019,-0.0189,0.0323,0.0328,0.0331]}],[{"header":{"parameterUnit":"m.s-1","parameterCategory":2,"la1":30.2991,"la2":30.254,"lo1":-89.0895,"lo2":-89.0444,"dy":0.0017,"dx":0.0017,"nx":28,"ny":28,"refTime":"2023-08-13T03:00:00:Z","depth":"2","parameterNumber":2,"parameterNumberName":"U-component_of_CURRENTS"},"data":[0,0,0,0,0,0,0,0,0,0,0,0,0,0,0,0,0,0,0,0,0,0,0,0,0,0,0,0,0,0,0,0,0,0,0,0,0,0,0,0,0,0,0,0,0,0,0,0,0,0,0,0,0,0,0,0,0,0,-0.2194,-0.2196,0,-0.2313,-0.2314,-0.2315,-0.2428,-0.2429,-0.2431,-0.2432,-0.2471,-0.247,-0.247,0,0,0,0,0,0,0,0,0,0,0,0,0,-0.2012,-0.2015,-0.2194,-0.2196,-0.2197,-0.2312,-0.2314,-0.2316,-0.2428,-0.2429,-0.2431,-0.2433,-0.2471,-0.247,-0.247,0,0,0,0,0,0,0,0,0,0,0,0,0,-0.2106,-0.2016,-0.2194,-0.2267,-0.2275,-0.2312,-0.2314,-0.2316,-0.2427,-0.243,-0.2432,-0.2434,-0.2471,-0.247,-0.247,-0.2422,0,0,-0.2468,-0.2468,0,0,0,0,0,0,0,0,-0.2101,-0.2113,-0.2255,-0.2263,-0.2271,-0.2358,-0.2264,-0.2348,-0.2427,-0.2369,-0.2432,-0.2435,-0.2424,-0.2428,-0.2445,-0.2424,-0.2426,-0.2468,-0.2468,-0.2468,-0.2467,0,0,0,0,0,0,0,-0.2094,-0.2108,-0.2241,-0.2257,-0.2266,-0.2276,-0.2293,-0.228,-0.2381,-0.2374,-0.2383,-0.2396,-0.2428,-0.2446,-0.2447,-0.2426,-0.2468,-0.2468,-0.2467,-0.2467,-0.2358,-0.2356,0,0,0,0,0,0,-0.2082,-0.2102,-0.2237,-0.2244,-0.219,-0.2278,-0.2296,-0.2328,-0.2383,-0.2395,-0.2394,-0.2401,-0.2446,-0.2447,-0.2449,-0.2403,-0.2468,-0.2467,-0.2467,-0.2361,-0.2357,-0.2355,0,0,0,0,0,0,-0.2078,-0.2093,-0.2232,-0.2175,-0.2194,-0.2279,-0.2313,-0.2329,-0.2388,-0.2399,-0.2409,-0.2442,-0.2447,-0.2449,-0.2449,-0.2405,-0.2467,-0.2466,-0.2364,-0.236,-0.2356,-0.2307,0,0,0,0,0,0,-0.2072,-0.2091,-0.2127,-0.2175,-0.2197,-0.2277,-0.2312,-0.233,-0.239,-0.2401,-0.2442,-0.2446,-0.2449,-0.245,-0.2449,-0.2406,-0.2466,-0.2367,-0.2362,-0.2357,-0.2312,-0.2302,-0.2293,0,0,0,0,0,-0.2065,-0.2096,-0.2128,-0.2145,-0.2238,-0.2278,-0.2291,-0.2357,-0.2391,-0.2418,-0.2429,-0.2447,-0.2417,-0.2448,-0.2447,-0.2403,-0.2369,-0.2363,-0.2358,-0.2316,-0.2304,-0.2294,0,0,0,0,0,0,-0.2061,-0.2111,-0.2148,-0.2203,-0.2249,-0.2298,-0.2335,-0.2371,-0.2405,-0.2426,-0.2432,-0.2435,-0.2406,-0.2411,-0.2445,-0.2352,-0.2388,-0.2382,-0.2356,-0.2345,-0.2336,-0.2329,-0.2465,0,0,0,0,0,-0.2068,-0.2107,-0.2152,-0.2211,-0.2226,-0.2285,-0.2317,-0.2362,-0.2391,-0.2414,-0.2419,-0.241,-0.2371,-0.2372,-0.2347,-0.2316,-0.2288,-0.2277,-0.2268,-0.2261,-0.225,-0.2192,-0.2177,-0.2336,-0.2336,-0.2336,0,0,-0.2109,-0.2125,-0.2167,-0.2212,-0.2255,-0.2265,-0.2312,-0.2372,-0.2371,-0.2404,-0.2399,-0.2384,-0.2354,-0.2306,-0.2292,-0.2316,-0.2189,-0.2253,-0.2247,-0.2241,-0.2184,-0.2169,-0.2156,-0.2332,-0.2332,-0.2333,0,0,-0.216,-0.2196,-0.2234,-0.2241,-0.2288,-0.2295,-0.2314,-0.2357,-0.237,-0.2358,-0.2357,-0.2325,-0.2289,-0.225,-0.2223,-0.2149,-0.2139,-0.2135,-0.2093,-0.2036,-0.2023,-0.2011,-0.1915,-0.1895,-0.2137,-0.2137,-0.2137,0,-0.2208,-0.2234,-0.2256,-0.2257,-0.2254,-0.2301,-0.231,-0.2314,-0.2349,-0.2329,-0.2351,-0.2256,-0.2248,-0.2159,-0.2128,-0.2127,-0.2087,-0.2144,-0.2026,-0.2014,-0.2003,-0.1908,-0.1887,-0.2134,-0.2134,-0.2134,-0.2135,0,-0.225,-0.2272,-0.2283,-0.2282,-0.2282,-0.2301,-0.2284,-0.2283,-0.2281,-0.227,-0.22,-0.2172,-0.2112,-0.2091,-0.2087,-0.1989,-0.1979,-0.2019,-0.2062,-0.1985,-0.1888,-0.1867,-0.2129,-0.213,-0.2131,-0.2132,0,0,-0.235,-0.2322,-0.2328,-0.2299,-0.2284,-0.2276,-0.2246,-0.221,-0.2169,-0.2163,-0.2085,-0.2017,-0.2009,-0.1976,-0.196,-0.1917,-0.1792,-0.1937,-0.1935,-0.1852,-0.163,-0.157,-0.1541,-0.1824,-0.1821,-0.1819,-0.158,0,-0.238,-0.2354,-0.2333,-0.2302,-0.2273,-0.2248,-0.2195,-0.2164,-0.2122,-0.2049,-0.2006,-0.1927,-0.1959,-0.1917,-0.1876,-0.1824,-0.1741,-0.1851,-0.1707,-0.1701,-0.1668,-0.1517,-0.1473,-0.1253,-0.156,-0.1556,-0.1554,0,-0.2402,-0.2368,-0.2338,-0.2247,-0.2234,-0.2208,-0.2099,-0.2065,-0.1978,-0.1942,-0.1877,-0.184,-0.175,-0.1791,-0.1655,-0.1729,-0.1657,-0.1621,-0.1612,-0.1562,-0.1602,-0.1386,-0.1204,-0.1519,-0.1522,-0.1524,-0.1527,0,-0.2385,-0.235,-0.2305,-0.2279,-0.2203,-0.2166,-0.2119,-0.2036,-0.1976,-0.1866,-0.1804,-0.172,-0.164,-0.1584,-0.1512,-0.1572,-0.1357,-0.1432,-0.129,-0.1284,-0.1219,-0.1213,-0.129,-0.1291,-0.1291,-0.1292,-0.1293,0,-0.2369,-0.2333,-0.229,-0.2254,-0.2174,-0.2134,-0.2038,-0.1982,-0.1891,-0.1795,-0.1745,-0.1641,-0.1587,-0.1473,-0.1442,-0.1281,-0.1289,-0.1227,-0.1206,-0.1195,-0.1189,-0.1425,-0.1444,-0.1283,-0.1285,-0.1287,-0.1288,0,-0.235,-0.2334,-0.2261,-0.2187,-0.216,-0.2096,-0.1996,-0.192,-0.1851,-0.1719,-0.1676,-0.1543,-0.1389,-0.1317,-0.1176,-0.1149,-0.1039,-0.0972,-0.0939,-0.0919,-0.1016,-0.1035,-0.0778,-0.0773,-0.0769,-0.0766,-0.0764,0,-0.233,-0.2295,-0.2209,-0.2158,-0.2125,-0.204,-0.1973,-0.19,-0.1824,-0.1656,-0.1581,-0.1391,-0.1234,-0.0995,-0.0927,-0.0791,-0.086,-0.0642,-0.0753,-0.095,-0.0957,-0.0982,-0.1005,-0.0621,-0.0618,-0.0615,-0.0613,0,-0.226,-0.2239,-0.2173,-0.2083,-0.2011,-0.1938,-0.1848,-0.1791,-0.169,-0.1581,-0.1397,-0.1258,-0.1016,-0.0841,-0.0661,-0.0591,-0.0681,-0.0576,-0.0748,-0.0783,-0.0791,-0.0803,-0.0833,-0.0586,-0.0589,-0.0591,-0.0592,-0.0593,-0.2189,-0.2132,-0.2046,-0.1958,-0.1887,-0.1816,-0.1732,-0.1654,-0.1527,-0.132,-0.1246,-0.1003,-0.0876,-0.0588,-0.0491,-0.0411,-0.0472,-0.0436,-0.0449,-0.0465,-0.0514,-0.0518,-0.0268,-0.0269,-0.0269,-0.027,-0.027,0,-0.2064,-0.1998,-0.1917,-0.1803,-0.172,-0.1715,-0.1614,-0.1514,-0.1351,-0.1166,-0.0976,-0.0731,-0.0568,-0.046,-0.0336,-0.0266,-0.0308,-0.0204,-0.0302,-0.0325,-0.0346,-0.0397,-0.0115,-0.0115,-0.0114,-0.0114,0,0,-0.198,-0.1866,-0.1832,-0.1657,-0.1588,-0.1449,-0.1386,-0.1252,-0.1103,-0.0827,-0.0663,-0.0552,-0.0482,-0.0356,-0.0267,-0.0192,-0.0257,-0.0145,-0.0266,-0.0407,-0.043,-0.0464,-0.0564,0,0,0,0,0]},{"header":{"parameterUnit":"m.s-1","parameterCategory":2,"la1":30.2991,"la2":30.254,"lo1":-89.0895,"lo2":-89.0444,"dy":0.0017,"dx":0.0017,"nx":28,"ny":28,"refTime":"2023-08-13T03:00:00:Z","depth":"2","parameterNumber":3,"parameterNumberName":"V-component_of_CURRENTS"},"data":[0,0,0,0,0,0,0,0,0,0,0,0,0,0,0,0,0,0,0,0,0,0,0,0,0,0,0,0,0,0,0,0,0,0,0,0,0,0,0,0,0,0,0,0,0,0,0,0,0,0,0,0,0,0,0,0,0,0,0.0048,0.0049,0,0.0184,0.0186,0.0188,0.0336,0.0338,0.034,0.0342,0.0594,0.0599,0.0604,0,0,0,0,0,0,0,0,0,0,0,0,0,-0.0112,-0.011,0.0048,0.0049,0.0051,0.0184,0.0186,0.0188,0.0336,0.0339,0.0341,0.0343,0.0593,0.0599,0.0604,0,0,0,0,0,0,0,0,0,0,0,0,0,-0.0015,-0.0109,0.0047,0.014,0.0149,0.0184,0.0186,0.0189,0.0336,0.0339,0.0342,0.0344,0.0591,0.0598,0.0605,0.059,0,0,0.0627,0.063,0,0,0,0,0,0,0,0,-0.002,-0.0009,0.0125,0.0133,0.0144,0.0245,0.0222,0.0328,0.0335,0.0266,0.0342,0.0346,0.0485,0.0501,0.0521,0.0602,0.0612,0.0628,0.0632,0.0636,0.0638,0,0,0,0,0,0,0,-0.0027,-0.0014,0.0103,0.0126,0.0138,0.0165,0.0182,0.0242,0.036,0.0273,0.0283,0.0295,0.0492,0.0513,0.0528,0.0616,0.0628,0.0634,0.0639,0.0642,0.0901,0.0904,0,0,0,0,0,0,-0.0049,-0.002,0.0099,0.0107,0.0066,0.0165,0.0185,0.0211,0.0358,0.0382,0.0292,0.0302,0.0499,0.0519,0.0538,0.0686,0.0635,0.0642,0.0646,0.0899,0.0902,0.0905,0,0,0,0,0,0,-0.0053,-0.0039,0.0093,0.0044,0.0063,0.0165,0.0193,0.0212,0.0305,0.0371,0.0399,0.0373,0.0502,0.0527,0.0654,0.0691,0.0646,0.0652,0.0896,0.09,0.0903,0.0882,0,0,0,0,0,0,-0.0058,-0.0041,-0.0019,0.0043,0.0065,0.0168,0.019,0.0212,0.0302,0.0317,0.0448,0.047,0.0507,0.0643,0.0661,0.07,0.0658,0.0893,0.0898,0.0902,0.0879,0.0885,0.0889,0,0,0,0,0,-0.0064,-0.0047,-0.0018,-0.0003,0.0089,0.017,0.0186,0.0266,0.0303,0.0359,0.0444,0.047,0.0686,0.0651,0.0672,0.0714,0.089,0.0896,0.0902,0.0877,0.0884,0.0889,0,0,0,0,0,0,-0.0089,-0.0029,0.0004,0.0045,0.0126,0.0196,0.0235,0.0297,0.0404,0.0437,0.0501,0.0529,0.065,0.0693,0.0652,0.0807,0.0793,0.0803,0.0768,0.0774,0.0779,0.0728,0.0664,0,0,0,0,0,-0.0094,-0.0058,0.0012,0.006,0.0086,0.0171,0.0216,0.0291,0.0379,0.0433,0.0517,0.0606,0.0675,0.0737,0.0808,0.0893,0.0881,0.0938,0.0943,0.0946,0.0923,0.0944,0.0947,0.0924,0.0923,0.0923,0,0,-0.0081,-0.0049,-0.0021,0.0057,0.0111,0.0167,0.021,0.0308,0.037,0.044,0.0558,0.0632,0.0704,0.0797,0.0855,0.0848,0.0948,0.0954,0.0955,0.093,0.095,0.0952,0.0953,0.0927,0.0927,0.0926,0,0,-0.0046,-0.0021,0.0023,0.0077,0.017,0.0206,0.0249,0.0359,0.0422,0.0538,0.0593,0.0693,0.0817,0.0864,0.0898,0.0977,0.0969,0.1018,0.1004,0.1026,0.1026,0.1026,0.0998,0.0996,0.1023,0.1023,0.1023,0,-0.0035,0.0023,0.0057,0.0107,0.0141,0.0227,0.0288,0.0348,0.0501,0.0536,0.0589,0.075,0.0834,0.0898,0.0933,0.0983,0.0974,0.0968,0.1025,0.1025,0.1026,0.0997,0.0995,0.1022,0.1022,0.1022,0.1022,0,0.0031,0.0083,0.0107,0.0179,0.0223,0.0295,0.0359,0.0431,0.0505,0.0568,0.0679,0.078,0.0865,0.092,0.0953,0.1005,0.0988,0.1019,0.0992,0.1025,0.0995,0.0992,0.1022,0.1022,0.1022,0.1022,0,0,0.0041,0.0133,0.0147,0.0176,0.0266,0.0303,0.0369,0.0437,0.0469,0.0608,0.0647,0.0786,0.0836,0.0878,0.0942,0.0976,0.0987,0.0999,0.1001,0.0937,0.0991,0.0912,0.0902,0.1024,0.1024,0.1024,0.0961,0,0.0089,0.0161,0.0204,0.0276,0.0305,0.0357,0.0391,0.0466,0.0529,0.0586,0.0674,0.0747,0.0817,0.0863,0.0908,0.097,0.0983,0.0998,0.0998,0.0997,0.0895,0.0898,0.0973,0.0917,0.0958,0.0958,0.0958,0,0.0134,0.0169,0.0232,0.0282,0.0297,0.034,0.0365,0.0425,0.0493,0.0544,0.0615,0.0681,0.0751,0.081,0.0885,0.0889,0.0931,0.0972,0.0971,0.0896,0.0914,0.09,0.0911,0.0954,0.0954,0.0954,0.0955,0,0.0083,0.0179,0.021,0.0235,0.0306,0.0323,0.0356,0.0414,0.0443,0.0506,0.0532,0.0618,0.0664,0.0731,0.0818,0.0855,0.0871,0.0935,0.0887,0.0881,0.0941,0.0938,0.0965,0.0965,0.0966,0.0966,0.0966,0,0.0084,0.0117,0.0184,0.02,0.0218,0.028,0.0301,0.0342,0.0396,0.042,0.0503,0.0525,0.0652,0.0685,0.0766,0.0789,0.0824,0.0856,0.0859,0.0935,0.0933,0.0973,0.0975,0.0963,0.0964,0.0964,0.0965,0,0.0036,0.0091,0.0118,0.0179,0.0196,0.0202,0.0259,0.027,0.0326,0.0351,0.0366,0.0447,0.0482,0.0561,0.0654,0.0707,0.075,0.0749,0.0793,0.0801,0.0757,0.0759,0.0692,0.0689,0.0686,0.0684,0.0682,0,0.0021,0.0029,0.0075,0.0082,0.0113,0.0138,0.0154,0.0224,0.024,0.0302,0.0303,0.0337,0.0365,0.0421,0.0517,0.0573,0.0635,0.0667,0.0761,0.0719,0.0729,0.0736,0.0742,0.0838,0.0838,0.0837,0.0837,0,-0.0027,-0.0016,-0.0001,0.001,0.0026,0.0047,0.008,0.0077,0.0153,0.0167,0.019,0.0213,0.028,0.0396,0.0451,0.0506,0.0664,0.0654,0.0623,0.0876,0.0846,0.086,0.0863,0.0833,0.0833,0.0834,0.0834,0.0834,-0.0079,-0.009,-0.0077,-0.0068,-0.0049,-0.0041,-0.0041,-0.0011,-0.0002,0.0038,0.0081,0.0171,0.029,0.0402,0.0443,0.0529,0.0556,0.0668,0.0675,0.0682,0.069,0.0655,0.0605,0.0604,0.0604,0.0603,0.0602,0,-0.0156,-0.0148,-0.015,-0.0144,-0.0158,-0.0103,-0.0087,-0.0096,-0.0103,-0.0017,0.0013,0.0141,0.0305,0.0433,0.0586,0.0615,0.0652,0.062,0.0743,0.0748,0.0752,0.0769,0.0702,0.0702,0.0701,0.07,0,0,-0.0193,-0.0225,-0.0222,-0.0254,-0.0235,-0.023,-0.0223,-0.0226,-0.0163,-0.0133,0.0009,0.0142,0.0367,0.047,0.055,0.0662,0.0658,0.0632,0.0567,0.071,0.0711,0.0815,0.0849,0,0,0,0,0]}],[{"header":{"parameterUnit":"m.s-1","parameterCategory":2,"la1":30.2991,"la2":30.254,"lo1":-89.0895,"lo2":-89.0444,"dy":0.0017,"dx":0.0017,"nx":28,"ny":28,"refTime":"2023-08-13T03:00:00:Z","depth":"4","parameterNumber":2,"parameterNumberName":"U-component_of_CURRENTS"},"data":[0,0,0,0,0,0,0,0,0,0,0,0,0,0,0,0,0,0,0,0,0,0,0,0,0,0,0,0,0,0,0,0,0,0,0,0,0,0,0,0,0,0,0,0,0,0,0,0,0,0,0,0,0,0,0,0,0,0,-0.0924,-0.0925,0,-0.0947,-0.0947,-0.0947,-0.0965,-0.0965,-0.0966,-0.0966,-0.1058,-0.106,-0.1062,0,0,0,0,0,0,0,0,0,0,0,0,0,-0.0891,-0.0891,-0.0924,-0.0925,-0.0925,-0.0947,-0.0947,-0.0947,-0.0965,-0.0965,-0.0966,-0.0966,-0.1057,-0.106,-0.1063,0,0,0,0,0,0,0,0,0,0,0,0,0,-0.0907,-0.0892,-0.0924,-0.0938,-0.0939,-0.0947,-0.0947,-0.0947,-0.0965,-0.0965,-0.0966,-0.0966,-0.1057,-0.106,-0.1063,-0.1073,0,0,-0.1073,-0.1074,0,0,0,0,0,0,0,0,-0.0906,-0.0908,-0.0935,-0.0937,-0.0939,-0.0955,-0.0969,-0.0993,-0.0965,-0.0953,-0.0966,-0.0967,-0.1031,-0.1036,-0.1036,-0.1077,-0.1081,-0.1073,-0.1075,-0.1076,-0.1077,0,0,0,0,0,0,0,-0.0905,-0.0907,-0.0931,-0.0936,-0.0938,-0.0941,-0.0944,-0.0973,-0.0989,-0.0954,-0.0956,-0.0961,-0.1032,-0.1033,-0.1039,-0.1083,-0.1073,-0.1076,-0.1078,-0.1079,-0.1188,-0.1189,0,0,0,0,0,0,-0.0905,-0.0906,-0.0931,-0.0932,-0.0925,-0.0942,-0.0944,-0.0948,-0.0987,-0.0994,-0.0961,-0.0962,-0.1027,-0.1035,-0.1042,-0.1089,-0.1076,-0.1079,-0.1081,-0.1187,-0.1189,-0.119,0,0,0,0,0,0,-0.0905,-0.0907,-0.093,-0.0921,-0.0925,-0.0942,-0.0945,-0.0948,-0.0964,-0.0992,-0.0999,-0.0976,-0.1028,-0.1037,-0.1078,-0.1092,-0.1081,-0.1084,-0.1186,-0.1188,-0.1189,-0.1164,0,0,0,0,0,0,-0.0903,-0.0907,-0.0912,-0.0921,-0.0925,-0.0939,-0.0945,-0.0948,-0.0966,-0.0969,-0.1007,-0.1015,-0.1029,-0.1073,-0.1081,-0.1096,-0.1086,-0.1185,-0.1187,-0.1189,-0.1163,-0.1164,-0.1165,0,0,0,0,0,-0.0902,-0.0904,-0.0912,-0.0915,-0.0931,-0.0939,-0.0942,-0.0954,-0.0967,-0.0971,-0.1,-0.1015,-0.1091,-0.1076,-0.1085,-0.1102,-0.1184,-0.1186,-0.1189,-0.1163,-0.1164,-0.1165,0,0,0,0,0,0,-0.0893,-0.0907,-0.0915,-0.0922,-0.0934,-0.0943,-0.0951,-0.0963,-0.0987,-0.0998,-0.1023,-0.1033,-0.1069,-0.1095,-0.1079,-0.1141,-0.1142,-0.1146,-0.1119,-0.112,-0.1121,-0.1125,-0.1089,0,0,0,0,0,-0.0894,-0.0899,-0.0913,-0.092,-0.0928,-0.0944,-0.0952,-0.0962,-0.0983,-0.0994,-0.1022,-0.1057,-0.1083,-0.1109,-0.1132,-0.1172,-0.1179,-0.1192,-0.1193,-0.1193,-0.1204,-0.1221,-0.1224,-0.1197,-0.1197,-0.1197,0,0,-0.0892,-0.0901,-0.0904,-0.0919,-0.0931,-0.0939,-0.095,-0.0966,-0.0978,-0.1003,-0.1034,-0.1056,-0.1092,-0.1124,-0.1145,-0.1152,-0.12,-0.1196,-0.1195,-0.1207,-0.1224,-0.1226,-0.1228,-0.1198,-0.1198,-0.1198,0,0,-0.0886,-0.0901,-0.0903,-0.0913,-0.0933,-0.0944,-0.0953,-0.0973,-0.099,-0.1021,-0.1037,-0.107,-0.112,-0.114,-0.1158,-0.1184,-0.1194,-0.12,-0.1217,-0.1233,-0.1235,-0.1237,-0.1224,-0.1225,-0.1211,-0.1211,-0.1211,0,-0.0884,-0.0888,-0.0905,-0.0909,-0.092,-0.0948,-0.0955,-0.0973,-0.1004,-0.1025,-0.1034,-0.1101,-0.1125,-0.1164,-0.1173,-0.1184,-0.1189,-0.1205,-0.1232,-0.1234,-0.1237,-0.1223,-0.1224,-0.121,-0.121,-0.121,-0.121,0,-0.0875,-0.0883,-0.0887,-0.0903,-0.0917,-0.0928,-0.0956,-0.0978,-0.1009,-0.1031,-0.1078,-0.1109,-0.1152,-0.1164,-0.1179,-0.1215,-0.1208,-0.1217,-0.1222,-0.1237,-0.1222,-0.1224,-0.1208,-0.1209,-0.1209,-0.1209,0,0,-0.0854,-0.0876,-0.0878,-0.0885,-0.0916,-0.0926,-0.0955,-0.0988,-0.1008,-0.1053,-0.1083,-0.1134,-0.116,-0.1184,-0.1206,-0.123,-0.1236,-0.1239,-0.124,-0.1213,-0.1254,-0.11,-0.1087,-0.1251,-0.1252,-0.1253,-0.1227,0,-0.0843,-0.0847,-0.0865,-0.0877,-0.0883,-0.092,-0.0941,-0.0979,-0.1015,-0.1049,-0.1101,-0.1136,-0.1166,-0.1185,-0.1216,-0.1231,-0.1245,-0.1241,-0.1257,-0.1257,-0.1107,-0.1086,-0.1256,-0.1228,-0.1229,-0.1229,-0.1229,0,-0.0822,-0.0831,-0.0839,-0.0865,-0.0874,-0.0888,-0.0931,-0.0954,-0.1011,-0.1039,-0.1094,-0.1133,-0.1184,-0.1198,-0.1247,-0.1245,-0.1254,-0.1263,-0.1262,-0.1133,-0.1106,-0.122,-0.1233,-0.1232,-0.1232,-0.1232,-0.1232,0,-0.079,-0.081,-0.0819,-0.0827,-0.0863,-0.088,-0.0904,-0.0955,-0.0975,-0.1034,-0.1047,-0.1125,-0.1148,-0.1194,-0.1221,-0.1242,-0.1248,-0.1274,-0.1142,-0.113,-0.1291,-0.1289,-0.1301,-0.1301,-0.1301,-0.1301,-0.1301,0,-0.0759,-0.0767,-0.0805,-0.0807,-0.0822,-0.0859,-0.0879,-0.0912,-0.0953,-0.0963,-0.1041,-0.1045,-0.1151,-0.1171,-0.1208,-0.1157,-0.1236,-0.1131,-0.1111,-0.1277,-0.1275,-0.129,-0.1289,-0.13,-0.13,-0.13,-0.13,0,-0.0717,-0.0741,-0.0751,-0.0791,-0.0805,-0.0816,-0.0851,-0.0861,-0.0902,-0.091,-0.0927,-0.0991,-0.0988,-0.1053,-0.1102,-0.1099,-0.1092,-0.1056,-0.1198,-0.1189,-0.0973,-0.0971,-0.0912,-0.0906,-0.0901,-0.0897,-0.0894,0,-0.0693,-0.0696,-0.0733,-0.0737,-0.0755,-0.0775,-0.0786,-0.0832,-0.0834,-0.0855,-0.0847,-0.0858,-0.0886,-0.0826,-0.0907,-0.0923,-0.0927,-0.0932,-0.0986,-0.0944,-0.0933,-0.0939,-0.0944,-0.0886,-0.0885,-0.0883,-0.0882,0,-0.0651,-0.0672,-0.0681,-0.0688,-0.0698,-0.0701,-0.0715,-0.0705,-0.0741,-0.0782,-0.0733,-0.0728,-0.0696,-0.0729,-0.0723,-0.0754,-0.0941,-0.0882,-0.0894,-0.0945,-0.0913,-0.0907,-0.0918,-0.0865,-0.0868,-0.0869,-0.087,0,-0.0623,-0.0616,-0.0629,-0.063,-0.0635,-0.0612,-0.0633,-0.0615,-0.062,-0.0646,-0.0621,-0.0624,-0.0666,-0.0635,-0.0641,-0.0632,-0.0646,-0.0679,-0.0702,-0.0722,-0.0672,-0.0604,-0.043,0,0,0,0,0,-0.0585,-0.057,-0.0568,-0.0549,-0.0548,-0.0547,-0.0575,-0.0598,-0.0627,-0.0562,-0.0587,-0.0547,-0.0515,-0.0532,-0.0485,-0.0565,-0.0661,-0.0511,-0.0715,-0.0772,-0.0792,-0.0751,0,0,0,0,0,0,-0.0556,-0.0551,-0.0547,-0.0481,-0.0447,-0.0434,-0.0447,-0.0474,-0.0446,-0.0482,-0.0466,-0.0497,-0.0479,-0.0508,-0.0461,-0.0467,-0.0583,-0.0522,-0.052,-0.0761,-0.0779,-0.0794,-0.0759,0,0,0,0,0]},{"header":{"parameterUnit":"m.s-1","parameterCategory":2,"la1":30.2991,"la2":30.254,"lo1":-89.0895,"lo2":-89.0444,"dy":0.0017,"dx":0.0017,"nx":28,"ny":28,"refTime":"2023-08-13T03:00:00:Z","depth":"4","parameterNumber":3,"parameterNumberName":"V-component_of_CURRENTS"},"data":[0,0,0,0,0,0,0,0,0,0,0,0,0,0,0,0,0,0,0,0,0,0,0,0,0,0,0,0,0,0,0,0,0,0,0,0,0,0,0,0,0,0,0,0,0,0,0,0,0,0,0,0,0,0,0,0,0,0,-0.0328,-0.0328,0,-0.0359,-0.036,-0.036,-0.0344,-0.0343,-0.0342,-0.0341,-0.0287,-0.0287,-0.0286,0,0,0,0,0,0,0,0,0,0,0,0,0,-0.0282,-0.0283,-0.0328,-0.0328,-0.0329,-0.0359,-0.036,-0.036,-0.0344,-0.0343,-0.0342,-0.0341,-0.0288,-0.0287,-0.0286,0,0,0,0,0,0,0,0,0,0,0,0,0,-0.0307,-0.0283,-0.0328,-0.0324,-0.0324,-0.0359,-0.036,-0.036,-0.0344,-0.0343,-0.0342,-0.034,-0.0288,-0.0287,-0.0286,-0.0307,0,0,-0.0283,-0.0283,0,0,0,0,0,0,0,0,-0.0306,-0.0309,-0.0324,-0.0324,-0.0324,-0.0346,-0.0324,-0.0338,-0.0345,-0.0337,-0.0341,-0.034,-0.03,-0.0298,-0.0309,-0.0305,-0.0302,-0.0283,-0.0283,-0.0282,-0.0282,0,0,0,0,0,0,0,-0.0304,-0.0308,-0.0341,-0.0325,-0.0325,-0.033,-0.0332,-0.0327,-0.0324,-0.0338,-0.0337,-0.0339,-0.0299,-0.031,-0.0307,-0.0301,-0.0283,-0.0282,-0.0282,-0.0281,-0.0312,-0.0313,0,0,0,0,0,0,-0.0299,-0.0306,-0.034,-0.0342,-0.0311,-0.0332,-0.0334,-0.0341,-0.0326,-0.0323,-0.0341,-0.0339,-0.0312,-0.0308,-0.0305,-0.0329,-0.0282,-0.0281,-0.0281,-0.0311,-0.0312,-0.0314,0,0,0,0,0,0,-0.0298,-0.0302,-0.0339,-0.0324,-0.0329,-0.0334,-0.0342,-0.0342,-0.0352,-0.0329,-0.0324,-0.035,-0.0311,-0.0306,-0.0312,-0.0327,-0.0281,-0.028,-0.0309,-0.0311,-0.0313,-0.0378,0,0,0,0,0,0,-0.0297,-0.0302,-0.0312,-0.0324,-0.0329,-0.0366,-0.0343,-0.0344,-0.0356,-0.0354,-0.0336,-0.033,-0.0309,-0.0314,-0.0311,-0.0325,-0.0279,-0.0307,-0.031,-0.0313,-0.0374,-0.0382,-0.0388,0,0,0,0,0,-0.0295,-0.0311,-0.0312,-0.0316,-0.0341,-0.0367,-0.0371,-0.037,-0.0358,-0.0373,-0.0362,-0.033,-0.0328,-0.0315,-0.0311,-0.0324,-0.0306,-0.0309,-0.0312,-0.037,-0.038,-0.0388,0,0,0,0,0,0,-0.0298,-0.0311,-0.0312,-0.0332,-0.0351,-0.0364,-0.0377,-0.0378,-0.0385,-0.0379,-0.0351,-0.0346,-0.0357,-0.0337,-0.0324,-0.0342,-0.031,-0.0313,-0.0356,-0.0364,-0.0372,-0.0362,-0.0279,0,0,0,0,0,-0.0304,-0.0319,-0.0334,-0.0353,-0.0361,-0.0372,-0.0383,-0.0387,-0.0392,-0.0394,-0.0383,-0.0372,-0.037,-0.0364,-0.0361,-0.0372,-0.0325,-0.0378,-0.0385,-0.0392,-0.0383,-0.0328,-0.0329,-0.0324,-0.0324,-0.0324,0,0,-0.0314,-0.0321,-0.0332,-0.0355,-0.0367,-0.0393,-0.0376,-0.0399,-0.0418,-0.0386,-0.0408,-0.04,-0.0381,-0.0397,-0.0398,-0.0378,-0.0372,-0.0396,-0.0401,-0.0388,-0.0331,-0.0331,-0.0331,-0.0326,-0.0326,-0.0325,0,0,-0.0339,-0.0345,-0.0365,-0.0383,-0.0404,-0.0414,-0.0422,-0.0442,-0.0446,-0.0472,-0.0452,-0.0454,-0.0456,-0.0444,-0.0437,-0.0482,-0.0416,-0.0484,-0.0506,-0.0454,-0.0453,-0.0452,-0.0402,-0.0396,-0.0482,-0.0482,-0.0483,0,-0.0349,-0.0374,-0.0378,-0.0402,-0.042,-0.0424,-0.0454,-0.0467,-0.0488,-0.0492,-0.0484,-0.0489,-0.0475,-0.0479,-0.0498,-0.0496,-0.0453,-0.0474,-0.0461,-0.0459,-0.0456,-0.0405,-0.0397,-0.0486,-0.0486,-0.0485,-0.0485,0,-0.0387,-0.0411,-0.0425,-0.0455,-0.0477,-0.0505,-0.052,-0.054,-0.0544,-0.0551,-0.0562,-0.0551,-0.0545,-0.055,-0.0537,-0.0523,-0.0496,-0.0479,-0.0433,-0.046,-0.0406,-0.0396,-0.0491,-0.049,-0.0489,-0.0488,0,0,-0.04,-0.0442,-0.0449,-0.0471,-0.0506,-0.0529,-0.0561,-0.0587,-0.0602,-0.0612,-0.0623,-0.0625,-0.0608,-0.0599,-0.0582,-0.0543,-0.0498,-0.0506,-0.0501,-0.0447,-0.0378,-0.035,-0.0337,-0.0473,-0.0471,-0.047,-0.035,0,-0.0429,-0.0477,-0.0495,-0.055,-0.0576,-0.0592,-0.0623,-0.0646,-0.0655,-0.0667,-0.0643,-0.0652,-0.0629,-0.0629,-0.0586,-0.053,-0.0474,-0.0532,-0.0368,-0.0363,-0.0327,-0.0325,-0.0466,-0.0343,-0.034,-0.0339,-0.0337,0,-0.0459,-0.0487,-0.054,-0.0591,-0.0605,-0.0641,-0.0681,-0.0709,-0.0719,-0.0721,-0.0711,-0.0695,-0.0663,-0.0631,-0.0516,-0.0553,-0.0463,-0.0406,-0.04,-0.034,-0.0317,-0.0309,-0.0319,-0.0321,-0.0322,-0.0323,-0.0324,0,-0.046,-0.0519,-0.056,-0.058,-0.0637,-0.0665,-0.0697,-0.0724,-0.0744,-0.075,-0.0756,-0.0715,-0.0695,-0.0588,-0.0488,-0.0492,-0.0344,-0.0332,-0.0215,-0.0212,-0.0242,-0.0245,-0.0215,-0.0215,-0.0215,-0.0215,-0.0216,0,-0.0478,-0.0517,-0.0565,-0.059,-0.0645,-0.0678,-0.0728,-0.0752,-0.0774,-0.0787,-0.0777,-0.0764,-0.0679,-0.0597,-0.0486,-0.0328,-0.0333,-0.0207,-0.0174,-0.0276,-0.0284,-0.0235,-0.024,-0.0211,-0.0212,-0.0213,-0.0213,0,-0.0483,-0.0513,-0.0564,-0.0625,-0.0648,-0.0688,-0.0754,-0.0783,-0.0801,-0.0814,-0.0817,-0.0792,-0.0685,-0.0585,-0.042,-0.0327,-0.0182,-0.0113,-0.0235,-0.0213,-0.0081,-0.009,0.0034,0.0036,0.0038,0.0039,0.0041,0,-0.0491,-0.0515,-0.0584,-0.0619,-0.0653,-0.0711,-0.0752,-0.0792,-0.0811,-0.0816,-0.0812,-0.0746,-0.0703,-0.0454,-0.0353,-0.0142,-0.0104,-0.0032,-0.0048,-0.0072,-0.0052,-0.0064,-0.0076,0.0043,0.0044,0.0044,0.0045,0,-0.0506,-0.0528,-0.0569,-0.0631,-0.0683,-0.0742,-0.0792,-0.0798,-0.0824,-0.0841,-0.0773,-0.0677,-0.0557,-0.0415,-0.0265,-0.0111,-0.0092,-0.0013,-0.0015,-0.0029,-0.0059,-0.0044,-0.0057,0.0051,0.005,0.0049,0.0049,0,-0.0514,-0.0543,-0.0587,-0.0642,-0.0706,-0.0753,-0.0781,-0.0781,-0.0793,-0.0776,-0.0744,-0.0639,-0.059,-0.0394,-0.0251,-0.0116,-0.0068,-0.0016,-0.0017,-0.0023,-0.0087,-0.0136,-0.0008,0,0,0,0,0,-0.0515,-0.0545,-0.0598,-0.0658,-0.0718,-0.0756,-0.0801,-0.0817,-0.0818,-0.0754,-0.0744,-0.062,-0.0423,-0.036,-0.0209,-0.0223,-0.0062,-0.0043,-0.0007,0.0085,0.0078,0.0014,0,0,0,0,0,0,-0.0519,-0.0563,-0.059,-0.0653,-0.0695,-0.0763,-0.079,-0.0797,-0.075,-0.0731,-0.0625,-0.0574,-0.0389,-0.0502,-0.0204,-0.017,-0.0122,0.004,0.0044,0.0089,0.0082,0.0077,0.0008,0,0,0,0,0]}]]